This is the latest recevied weather packets stored in our database for station/object WY7EM. If no packets are shown the sender has not sent any weather packets the latest 10 day(s).
| Time | Temp. | Humidity | Pressure | Rain* | Wind** | Luminosity | Snow |
|---|---|---|---|---|---|---|---|
| 1777834889 | 25° C | 19% | 1014.5 hPa | 0 mm | - | 885 W/m² | - |
| 1777834585 | 25° C | 20% | 1014.5 hPa | 0 mm | - | 887 W/m² | - |
| 1777834280 | 24.44° C | 20% | 1014.9 hPa | 0 mm | - | 917 W/m² | - |
| 1777833976 | 25.56° C | 19% | 1014.8 hPa | 0 mm | - | 904 W/m² | - |
| 1777833672 | 25.56° C | 19% | 1014.9 hPa | 0 mm | - | 844 W/m² | - |
| 1777833369 | 25° C | 19% | 1015.1 hPa | 0 mm | - | 865 W/m² | - |
| 1777833066 | 24.44° C | 20% | 1015.1 hPa | 0 mm | - | 852 W/m² | - |
| 1777832765 | 23.89° C | 20% | 1015.3 hPa | 0 mm | - | 849 W/m² | - |
| 1777832462 | 23.89° C | 20% | 1015.4 hPa | 0 mm | - | 769 W/m² | - |
| 1777832159 | 23.89° C | 19% | 1015.5 hPa | 0 mm | - | 751 W/m² | - |
| 1777831855 | 23.33° C | 20% | 1015.5 hPa | 0 mm | - | 739 W/m² | - |
| 1777831553 | 23.33° C | 20% | 1015.7 hPa | 0 mm | - | 846 W/m² | - |
| 1777831250 | 22.78° C | 21% | 1015.7 hPa | 0 mm | - | 743 W/m² | - |
| 1777830947 | 22.78° C | 20% | 1015.8 hPa | 0 mm | - | 679 W/m² | - |
| 1777830645 | 22.78° C | 20% | 1016 hPa | 0 mm | - | 788 W/m² | - |
| 1777830342 | 21.67° C | 21% | 1016 hPa | 0 mm | - | 686 W/m² | - |
| 1777830038 | 22.22° C | 21% | 1016.2 hPa | 0 mm | - | 652 W/m² | - |
| 1777829733 | 21.67° C | 21% | 1016.3 hPa | 0 mm | - | 704 W/m² | - |
| 1777829429 | 22.22° C | 21% | 1016.4 hPa | 0 mm | - | 651 W/m² | - |
| 1777829127 | 21.67° C | 20% | 1016.4 hPa | 0 mm | - | 732 W/m² | - |
| 1777828824 | 21.11° C | 21% | 1016.4 hPa | 0 mm | - | 638 W/m² | - |
| 1777828520 | 21.67° C | 21% | 1016.8 hPa | 0 mm | - | 696 W/m² | - |
| 1777828218 | 21.67° C | 21% | 1016.8 hPa | 0 mm | - | 683 W/m² | - |
| 1777827914 | 21.11° C | 21% | 1016.6 hPa | 0 mm | - | 675 W/m² | - |
| 1777827612 | 21.11° C | 21% | 1016.9 hPa | 0 mm | - | 671 W/m² | - |
* Rain latest hour (hover to see other rain measurements)
** Current wind speed in m/s (hover to see current wind gust speed)